WetterOnline ( https://www.wetteronline.de )

Wetter aktuell Pforzheim

Aktuelles Wetter: Mühlacker (245m)

6-stündlich | Neueste Meldungen
Ortszeit Temperatur Wetter
Do, 29.09. 2:00 4.2° C bewölkt
Mi, 28.09. 20:00 10.3° C bewölkt
Mi, 28.09. 14:00 12.4° C wolkig
Mi, 28.09. 8:00 9.0° C Sprühregen
Mi, 28.09. 2:00 7.8° C bedeckt
Di, 27.09. 20:00 9.2° C wolkig
Di, 27.09. 14:00 7.8° C Regen
Di, 27.09. 8:00 9.5° C Sprühregen
Ortszeit Temperatur Wetter
Do, 29.09. 6:00 5.4° C Nebel
Do, 29.09. 5:50 5.4° C Nebel
Do, 29.09. 5:40 5.4° C Dunst
Do, 29.09. 5:30 5.1° C Nebel
Do, 29.09. 5:20 5.1° C Nebel
Do, 29.09. 5:10 5.1° C Nebel
Do, 29.09. 5:00 5.1° C Nebel
Do, 29.09. 4:30 4.8° C Nebel
Do, 29.09. 4:00 4.1° C Nebel
Do, 29.09. 3:30 3.6° C wolkig
Do, 29.09. 3:00 3.9° C bewölkt
Ortszeit Relative Feuchte Sichtweite
Do, 29.09. 2:00 96% 23 km
Mi, 28.09. 20:00 77% 65 km
Mi, 28.09. 14:00 67% >70 km
Mi, 28.09. 8:00 93% 45 km
Mi, 28.09. 2:00 92% >70 km
Di, 27.09. 20:00 81% 65 km
Di, 27.09. 14:00 90% 6 km
Di, 27.09. 8:00 86% 55 km
Ortszeit Relative Feuchte Sichtweite
Do, 29.09. 6:00 95% 0.7 km
Do, 29.09. 5:50 95% -
Do, 29.09. 5:40 95% -
Do, 29.09. 5:30 95% 0.5 km
Do, 29.09. 5:20 95% -
Do, 29.09. 5:10 96% -
Do, 29.09. 5:00 95% 1.0 km
Do, 29.09. 4:30 96% 0.9 km
Do, 29.09. 4:00 96% 1.6 km
Do, 29.09. 3:30 95% 11 km
Do, 29.09. 3:00 95% 22 km
Ortszeit Niederschlagsmenge Niederschlagsart
Do, 29.09. 2:00 0.1 l/m2 in 6 Std. Sprühregen
Mi, 28.09. 20:00 0.4 l/m2 in 12 Std. Regen
Mi, 28.09. 14:00 0.4 l/m2 in 6 Std. Regen
Mi, 28.09. 8:00 6 l/m2 in 12 Std. Regen
Mi, 28.09. 2:00 0.1 l/m2 in 6 Std. Regen
Di, 27.09. 20:00 8 l/m2 in 12 Std. Regen
Di, 27.09. 14:00 4 l/m2 in 6 Std. Regen
Di, 27.09. 8:00 3 l/m2 in 12 Std. Regen
Ortszeit Niederschlagsmenge Niederschlagsart
Do, 29.09. 6:00 0.0 l/m2 in 1 Std. -
Do, 29.09. 5:50 keine Meldung -
Do, 29.09. 5:40 keine Meldung -
Do, 29.09. 5:30 0.0 l/m2 in 1 Std. -
Do, 29.09. 5:20 keine Meldung -
Do, 29.09. 5:10 keine Meldung -
Do, 29.09. 5:00 0.0 l/m2 in 1 Std. -
Do, 29.09. 4:30 0.0 l/m2 in 1 Std. -
Do, 29.09. 4:00 0.0 l/m2 in 1 Std. -
Do, 29.09. 3:30 0.0 l/m2 in 1 Std. -
Do, 29.09. 3:00 0.0 l/m2 in 1 Std. -
Ortszeit Stärke Spitze Richtung
km/h Bft. km/h Grad Sektor
Do, 29.09. 2:00 2 1 15 120° SO
Mi, 28.09. 20:00 4 1 29 250° W
Mi, 28.09. 14:00 17 3 31 250° W
Mi, 28.09. 8:00 7 2 20 250° W
Mi, 28.09. 2:00 6 1 28 110° O
Di, 27.09. 20:00 14 3 29 260° W
Di, 27.09. 14:00 14 3 43 250° W
Di, 27.09. 8:00 19 3 39 260° W
Ortszeit Stärke Spitze Richtung
km/h Bft. km/h Grad Sektor
Do, 29.09. 6:00 4 1 4 140° SO
Do, 29.09. 5:50 4 1 - 140° SO
Do, 29.09. 5:40 2 1 - 50° NO
Do, 29.09. 5:30 0 0 4 - -
Do, 29.09. 5:20 0 0 - 180° S
Do, 29.09. 5:10 0 0 - 270° W
Do, 29.09. 5:00 4 1 4 280° W
Do, 29.09. 4:30 0 0 4 - -
Do, 29.09. 4:00 2 1 4 90° O
Do, 29.09. 3:30 0 0 4 - -
Do, 29.09. 3:00 0 0 4 - -
Ortszeit Untergrenze Bedeckung Gattung
total tief tief mittel hoch
Do, 29.09. 2:00 1350 m 7/8 7/8 - - -
Mi, 28.09. 20:00 1470 m 7/8 7/8 - - -
Mi, 28.09. 14:00 900 m 8/8 1/8 - - -
Mi, 28.09. 8:00 360 m 8/8 8/8 - - -
Mi, 28.09. 2:00 1320 m 8/8 8/8 - - -
Di, 27.09. 20:00 1500 m 6/8 6/8 - - -
Di, 27.09. 14:00 1140 m 7/8 7/8 - - -
Di, 27.09. 8:00 780 m 7/8 7/8 - - -
Ortszeit Bedeckungsgrad in Achtel und Wolkenuntergrenze
Do, 29.09. 6:00 7(1440m) 8(1800m)
Do, 29.09. 5:50 7(1440m) 8(1800m)
Do, 29.09. 5:40 8
Do, 29.09. 5:30 4(1410m) 6(2100m) 8(2400m)
Do, 29.09. 5:20 4(1410m) 6(2100m) 8(2400m)
Do, 29.09. 5:10 8
Do, 29.09. 5:00 1(1380m) 7(2100m) 8(2400m)
Do, 29.09. 4:30 8(2100m)
Do, 29.09. 4:00 7(<30m) 8(2100m) 8(9000m)
Do, 29.09. 3:30 3(2100m) 6(6900m) 7(9000m)
Do, 29.09. 3:00 7(2700m) 8(7200m) 8(7800m)
Ortszeit Luftdruck NN (hPa) Tendenz (hPa in 3 Std.)
Do, 29.09. 2:00 1003 0,0
Mi, 28.09. 20:00 1001 + 0,8
Mi, 28.09. 14:00 1000 + 0,4
Mi, 28.09. 8:00 998 + 0,5
Mi, 28.09. 2:00 1000 - 2,6
Di, 27.09. 20:00 1003 + 0,4
Di, 27.09. 14:00 1003 + 0,2
Di, 27.09. 8:00 1001 + 1,6
Ortszeit Luftdruck NN (hPa) Tendenz (hPa in 3 Std.)
Do, 29.09. 6:00 1002 - 0,2
Do, 29.09. 5:50 1002 keine Meldung
Do, 29.09. 5:40 1002 keine Meldung
Do, 29.09. 5:30 1002 - 0,2
Do, 29.09. 5:20 1002 keine Meldung
Do, 29.09. 5:10 1002 keine Meldung
Do, 29.09. 5:00 1002 - 0,2
Do, 29.09. 4:30 1003 - 0,1
Do, 29.09. 4:00 1002 - 0,3
Do, 29.09. 3:30 1003 - 0,3
Do, 29.09. 3:00 1003 - 0,2
Ortszeit Schneehöhe (cm)
Do, 29.09. 2:00 0
Mi, 28.09. 20:00 0
Mi, 28.09. 14:00 0
Mi, 28.09. 8:00 0
Mi, 28.09. 2:00 0
Di, 27.09. 20:00 0
Di, 27.09. 14:00 0
Di, 27.09. 8:00 0
Ortszeit Schneehöhe (cm)
Do, 29.09. 6:00 0
Do, 29.09. 5:50 0
Do, 29.09. 5:40 0
Do, 29.09. 5:30 0
Do, 29.09. 5:20 0
Do, 29.09. 5:10 0
Do, 29.09. 5:00 0
Do, 29.09. 4:30 0
Do, 29.09. 4:00 0
Do, 29.09. 3:30 0
Do, 29.09. 3:00 0
Link zu dieser Seite / Seite empfehlen

Das Wetter in ...